Location: Unspecified
(49.2170°N, 0.0000°E)
Time: 19:00:48
(UTC+00:00)

Transit 4A - Pass Details

Date: 20 June 2019
Orbit: 862 x 982 km, 66.8° (Epoch: 16 July)

Event Time Altitude Azimuth Distance (km) Brightness Sun altitude
Rises 17:40:19 0° 321° (NW) 3,694 11.8 20.9°
Reaches altitude 10° 17:42:58 10° 317° (NW) 2,737 11.4 20.5°
Maximum altitude 17:49:07 51° 244° (WSW) 1,198 9.4 19.5°
Drops below altitude 10° 17:55:07 10° 170° (S) 2,664 10.1 18.5°
Sets 17:57:41 0° 165° (SSE) 3,587 10.7 18.1°
